Temp
9 9 9 9 9 9 9 9 9 9 9 9 9 10 11 13 13 14 14 13 13 13 13 13 13 14 14 13 13 15 15 15 14 14 14 14 14 14 13 13 14 16 17 18 18 18 18
9 9 9 9 9 9 9 9 9 9 9 9 9 12 14 13 14 14 14 14 14 14 13 13 13 14 13 13 15 15 15 15 15 14 14 14 14 14 14 14 15 15 16 16 18 18 19
10 9 9 9 9 9 9 9 9 9 9 9 10 13 14 14 14 14 14 14 14 14 14 14 13 14 13 14 15 16 15 15 15 15 14 15 14 14 14 14 14 15 16 17 18 19 19
10 11 9 9 9 9 9 9 9 9 9 11 13 13 13 14 14 15 15 15 15 15 14 14 13 13 13 16 16 16 15 15 15 15 15 15 15 14 14 14 14 16 14 15 17 18 19
10 11 10 10 9 9 9 9 8 9 14 13 13 13 13 13 14 15 15 15 15 15 14 14 13 13 14 17 16 16 15 15 15 15 15 15 15 13 13 13 12 12 13 15 17 17 18
11 12 11 10 9 9 9 9 9 10 13 13 12 13 13 13 14 15 15 15 15 15 14 14 13 13 15 14 15 16 16 15 15 14 14 14 11 12 11 12 12 14 15 15 16 17 18
12 12 11 10 9 10 10 9 8 12 13 13 13 13 13 13 14 14 15 15 12 13 14 14 13 14 14 16 15 16 16 15 14 13 12 12 10 12 13 14 14 14 14 15 16 17 17
12 12 12 13 11 12 11 10 10 13 14 13 13 13 13 14 14 14 14 11 11 11 12 13 12 12 14 15 14 15 16 14 13 12 12 12 12 13 13 14 14 14 14 15 15 16 17
11 12 14 13 13 12 13 12 10 12 14 13 13 13 13 13 14 14 12 11 12 11 11 13 14 14 14 15 14 14 14 14 13 13 12 13 14 14 15 15 15 15 15 15 16 15 16
11 12 13 12 13 13 13 13 12 14 14 14 13 13 14 14 14 12 12 12 12 12 10 14 15 16 16 15 15 15 15 14 13 13 13 13 14 14 15 15 14 15 15 15 15 14 14
11 10 12 13 12 13 13 13 13 14 14 14 13 13 13 13 13 12 12 12 12 12 10 15 14 16 14 15 15 16 15 15 14 13 13 14 14 13 14 15 15 14 14 14 15 13 14
10 10 10 11 12 12 14 13 13 13 14 14 13 13 13 13 13 12 12 12 12 10 11 13 14 14 13 14 15 14 14 14 14 13 12 12 13 13 14 14 14 14 15 12 10 11 10
9 10 10 10 10 11 12 14 13 13 13 14 13 13 13 12 12 12 12 11 10 11 13 15 13 13 12 13 14 14 13 12 12 11 10 11 13 13 14 14 14 13 11 10 12 10 11
9 9 9 10 10 10 11 12 14 13 14 13 13 13 13 12 12 12 12 11 13 15 13 13 13 12 14 14 15 14 13 12 13 12 9 10 11 14 13 14 14 13 12 10 13 11 11
9 9 9 9 10 10 10 11 13 14 14 14 13 13 12 12 12 12 9 9 13 13 14 13 13 14 13 14 14 13 14 13 13 13 13 12 12 13 13 13 13 14 13 12 11 10 11
9 9 9 9 9 10 10 11 11 13 14 13 13 12 12 12 12 11 10 14 13 13 13 13 14 14 14 13 13 13 13 14 14 13 12 13 11 13 13 13 12 13 12 12 9 14 13
9 8 8 9 9 9 9 10 10 12 13 13 12 11 11 11 12 9 12 12 12 12 13 13 13 13 13 13 13 13 14 14 13 13 12 12 11 12 12 12 12 11 11 11 10 10 13
8 8 8 8 8 9 9 9 10 11 13 13 10 12 11 11 11 6 12 12 14 13 12 13 12 12 12 13 13 14 14 14 13 13 13 12 10 10 12 12 12 12 12 11 11 13 9
8 8 8 8 8 8 8 9 9 10 10 11 9 8 11 11 13 11 11 13 13 12 12 12 12 11 12 13 13 12 14 13 12 12 13 12 11 10 12 12 12 12 12 11 9 9 10
8 8 8 8 8 7 8 8 8 9 10 10 8 10 9 7 7 13 14 14 14 12 13 12 12 13 12 12 11 12 14 14 12 12 12 12 10 12 12 14 12 12 11 10 10 7 10
8 8 7 7 7 7 7 7 8 8 9 10 6 10 9 11 12 11 13 13 14 14 11 11 12 11 11 13 13 11 12 13 12 12 11 10 10 9 10 10 10 11 11 10 8 10 11
8 8 8 7 7 7 7 7 7 8 9 9 8 9 7 8 9 11 11 12 12 13 12 12 11 12 9 11 13 14 13 13 12 10 10 8 10 10 10 11 10 9 10 9 9 9 8
8 8 8 8 7 7 7 7 7 7 8 8 6 6 7 9 9 10 10 12 13 12 13 13 11 11 10 10 10 10 11 11 12 11 9 9 8 9 10 10 9 11 12 9 10 8 10
8 8 8 8 8 7 7 7 7 7 7 7 6 6 6 8 8 9 12 11 12 11 13 13 11 11 12 11 11 10 8 7 7 8 8 8 8 8 8 9 11 14 12 12 11 11 9
8 8 8 8 8 8 8 8 8 7 7 7 7 6 4 6 6 8 9 9 9 10 10 11 11 10 9 11 10 10 10 11 9 8 6 7 8 9 9 8 11 14 12 12 13 13 11
8 8 8 8 8 8 8 8 8 7 7 7 7 7 5 5 6 8 8 10 9 9 9 9 9 8 9 8 9 10 11 11 11 9 6 6 6 8 7 9 11 14 13 11 12 10 11
8 8 8 8 8 8 8 8 8 8 7 7 7 7 6 3 4 6 6 8 9 9 7 8 9 9 9 7 8 8 8 9 10 9 6 6 6 7 7 7 8 11 11 11 12 12 10
8 8 7 7 7 7 7 7 7 7 7 7 7 7 7 5 5 5 6 6 7 8 9 8 8 7 6 8 8 8 6 7 9 9 7 8 7 6 6 7 8 10 10 11 12 10 10
5 5 5 4 4 4 4 5 5 5 5 6 6 6 6 5 7 8 9 8 9 9 7 6 8 7 8 7 6 6 7 4 6 8 7 9 11 11 9 9 12 9 12 10 8 10 9
Height
846 844 842 841 839 837 836 834 832 830 829 827 825 823 822 821 820 819 817 814 812 810 808 805 803 799 797 798 797 791 788 786 784 782 781 780 781 782 787 785 782 780 776 770 770 765 765
847 845 843 841 839 837 835 834 831 829 827 826 824 822 821 820 819 818 817 814 812 810 808 806 803 800 800 803 795 792 789 787 785 783 782 782 783 782 783 782 783 780 776 775 769 768 766
846 845 844 841 840 837 835 833 831 829 826 825 823 822 821 819 819 817 816 813 811 810 808 806 804 801 802 801 795 792 790 787 786 785 784 783 782 783 782 783 781 778 778 772 770 768 768
846 845 843 841 840 837 835 832 830 829 826 824 823 822 821 819 817 816 814 812 810 809 808 806 804 802 802 796 794 792 790 788 786 785 784 783 782 782 782 782 781 780 784 788 775 770 767
847 845 843 841 839 837 835 833 830 828 827 825 823 822 821 819 818 815 813 811 809 808 806 805 805 804 803 796 794 792 791 789 786 784 783 782 782 786 784 788 794 794 795 789 781 772 770
846 845 843 842 840 837 835 833 830 829 828 826 824 822 820 819 818 816 813 810 809 808 806 805 805 809 800 801 795 793 792 790 788 786 785 785 790 793 796 797 802 795 790 787 784 774 772
846 844 843 842 840 838 835 833 830 828 827 826 824 821 820 820 819 816 812 809 812 812 807 810 810 809 803 799 796 794 791 789 789 791 796 793 803 801 794 792 792 792 791 790 783 775 775
846 844 843 842 840 838 836 833 830 828 827 826 824 822 821 820 820 817 814 816 822 823 818 809 808 807 804 802 801 795 794 795 796 801 797 801 802 793 792 791 792 792 792 791 785 779 778
845 844 842 842 841 839 837 833 829 827 827 826 825 823 822 822 820 820 819 821 821 822 824 812 807 805 804 804 804 799 796 797 799 801 802 801 796 791 789 789 791 790 791 790 789 786 781
844 844 842 841 841 839 837 834 830 827 826 826 825 824 823 820 823 822 822 822 822 822 837 820 810 806 803 801 804 798 796 799 800 802 801 800 794 794 791 790 793 793 790 789 789 793 800
844 844 842 840 840 838 837 836 832 829 827 826 826 825 823 821 822 823 825 823 821 822 861 817 812 804 803 806 805 798 798 797 801 802 804 801 797 797 794 792 792 794 791 792 790 798 797
844 843 842 839 839 838 836 836 833 831 829 827 826 826 824 823 823 823 823 823 824 843 858 827 813 814 813 807 804 801 799 799 799 801 803 802 796 796 795 794 792 791 790 798 809 810 823
842 842 841 840 838 837 835 835 834 831 829 827 826 825 824 824 825 824 822 824 848 855 833 825 823 819 820 815 809 805 807 809 813 820 819 808 797 795 794 794 792 796 806 825 816 831 814
841 842 840 840 838 837 835 833 833 831 829 827 825 825 824 823 824 825 825 831 843 830 834 827 825 823 819 814 809 809 810 816 810 813 828 827 821 795 795 795 796 798 804 823 808 823 814
839 840 840 839 838 837 835 833 832 830 828 826 825 824 824 823 823 824 830 854 836 832 828 831 827 822 823 816 817 815 812 814 811 810 814 819 811 797 797 796 800 797 803 804 813 820 818
838 838 839 838 838 836 835 833 831 829 828 826 825 823 823 824 823 823 834 831 830 826 826 828 828 825 826 822 822 821 816 809 809 810 811 812 821 801 798 798 799 800 801 805 823 802 801
836 837 837 838 837 836 835 833 831 829 827 826 826 825 823 823 824 827 835 833 827 824 825 830 827 828 828 825 821 820 814 808 810 809 811 812 818 807 802 802 801 806 805 807 812 815 800
836 836 837 837 837 836 835 833 830 829 827 825 826 830 824 824 829 843 830 826 820 822 825 826 827 828 826 823 823 818 814 810 809 809 810 813 822 823 802 799 799 799 798 806 811 799 816
835 836 837 836 837 836 835 833 831 830 828 828 829 829 824 823 828 830 826 822 821 823 823 827 826 826 823 821 822 818 811 806 808 810 809 812 818 824 802 802 799 798 798 798 809 813 806
833 835 836 835 837 836 835 833 831 830 829 828 831 832 826 825 829 822 820 818 818 820 818 821 822 821 823 821 822 816 810 804 808 807 808 811 819 809 811 795 796 798 795 798 800 823 799
832 833 835 834 836 836 834 834 831 830 829 829 832 830 831 827 823 823 820 819 817 816 820 820 818 822 822 819 815 820 812 807 807 807 811 813 817 820 810 802 800 796 792 797 807 792 791
830 833 833 833 835 835 834 834 831 831 828 828 833 832 833 831 827 824 821 817 816 811 815 815 818 810 822 820 808 806 806 806 806 811 813 818 812 811 807 794 797 796 789 789 790 789 794
829 830 831 832 833 833 836 831 833 831 828 829 830 830 831 829 828 827 822 812 809 810 802 804 808 811 818 811 807 804 802 802 800 804 813 816 819 815 805 798 798 784 767 780 776 779 773
827 828 829 830 830 833 834 831 833 831 831 832 832 832 834 831 831 825 813 816 810 810 807 801 807 807 799 799 800 802 805 806 807 806 807 814 817 817 812 805 791 757 757 758 762 759 766
825 824 827 828 830 832 831 831 831 831 832 832 833 833 835 835 829 822 818 816 813 809 809 802 800 798 796 799 808 808 805 797 798 803 808 808 810 810 805 809 779 753 755 757 755 752 754
821 823 824 829 829 829 829 830 830 831 830 830 831 831 833 837 825 818 817 811 813 812 810 802 799 799 800 808 810 809 803 794 792 799 808 810 811 811 818 804 783 749 751 754 755 764 748
820 821 823 825 824 826 826 827 828 829 828 829 827 828 830 834 822 818 820 814 808 808 812 806 802 803 801 811 811 813 807 797 792 792 810 810 814 809 807 805 785 752 753 755 758 754 746
815 817 818 819 820 822 823 823 824 825 825 825 822 823 825 820 811 810 809 812 807 806 805 806 806 804 809 808 807 802 810 795 787 780 791 788 799 803 807 804 786 747 756 755 741 741 739
811 813 815 817 819 819 819 821 821 822 821 820 819 818 818 815 800 796 795 795 798 799 804 805 801 799 794 798 803 801 795 800 788 780 776 776 756 760 767 757 736 741 730 733 736 736 738
Wind_Speed
6 7 7 8 10 10 11 11 9 10 9 8 8 7 7 7 8 9 10 11 12 12 13 14 17 15 5 4 3 14 16 13 10 6 4 2 3 1 2 3 4 2 2 3 5 5 0
6 7 8 9 10 11 11 11 10 9 7 7 7 5 5 6 7 8 9 9 10 11 12 14 16 12 4 4 11 14 14 10 9 7 7 4 2 2 1 2 1 3 4 6 3 4 2
5 7 9 9 10 11 11 11 10 9 7 7 6 4 5 6 7 8 10 10 10 10 11 12 14 10 2 4 15 14 13 8 6 6 4 4 5 3 3 4 4 3 3 3 2 1 1
6 7 9 10 11 12 12 12 10 9 8 6 5 6 7 6 7 8 10 11 11 11 10 10 10 6 3 8 12 13 12 6 6 6 5 6 6 2 0 4 4 2 4 3 4 3 2
6 8 9 10 10 11 13 13 11 9 5 6 7 8 8 7 7 8 10 13 12 7 8 6 3 3 4 11 11 12 9 7 11 5 5 5 2 2 4 3 4 6 1 1 5 3 2
5 7 9 9 10 12 13 14 12 9 6 6 9 9 7 5 6 9 11 11 5 5 4 2 2 2 5 6 11 10 10 9 3 6 4 6 4 3 4 4 2 1 1 1 3 1 2
4 6 7 9 11 12 13 14 13 8 6 7 9 8 6 5 7 9 12 2 6 4 6 1 5 3 5 14 4 8 7 9 4 5 4 4 6 2 3 1 2 2 1 1 3 3 2
4 4 6 8 10 12 14 14 13 8 5 8 9 7 5 5 7 9 7 5 2 1 5 2 5 5 9 4 4 5 11 5 5 4 6 6 3 4 3 2 2 0 0 3 4 3 2
4 4 4 7 9 12 14 15 14 8 4 7 8 6 6 6 4 6 11 5 2 2 1 6 4 3 5 3 4 5 4 3 4 6 5 1 4 5 1 2 4 1 1 2 2 5 1
4 5 3 6 8 11 13 16 16 7 2 6 7 6 7 6 2 3 3 4 2 1 4 7 5 3 2 1 3 3 1 2 5 4 4 3 4 4 3 3 2 3 3 2 3 3 3
5 5 4 4 8 9 12 15 16 10 3 4 6 7 7 8 2 2 3 4 1 2 6 7 7 5 5 2 3 2 3 2 1 3 3 4 4 5 2 2 0 4 3 3 2 2 2
5 4 5 4 6 9 9 12 14 12 7 4 5 7 6 3 2 2 3 1 0 6 3 7 4 6 7 4 2 5 3 4 1 2 2 5 3 2 2 3 2 3 1 4 4 2 1
5 3 5 6 7 8 9 9 12 12 10 6 4 5 5 3 1 3 1 2 5 6 4 8 4 5 3 4 6 4 4 6 3 6 6 7 3 2 1 3 3 6 5 3 3 3 5
5 3 4 5 7 9 10 11 10 12 13 9 5 4 3 2 2 3 1 5 7 1 5 3 4 5 3 5 3 4 4 5 3 3 2 3 7 2 1 1 3 2 3 4 4 2 4
6 4 3 4 6 8 11 11 12 12 14 9 5 4 2 1 1 2 4 5 5 5 2 4 6 3 4 3 3 6 2 2 2 2 1 2 5 3 1 1 1 1 2 2 4 1 1
7 5 3 3 5 8 10 12 14 13 14 7 5 2 1 2 0 2 4 3 4 3 3 2 0 1 3 5 6 5 3 2 1 0 1 2 4 1 4 2 1 2 2 1 2 2 4
8 5 3 3 5 7 10 13 15 15 14 6 3 2 1 0 1 4 2 5 5 5 3 4 2 2 4 3 1 2 4 3 2 1 2 1 2 5 2 3 3 1 2 2 2 4 3
8 6 3 2 5 7 9 12 15 17 15 4 2 2 0 1 2 1 2 4 2 3 2 3 2 5 4 2 3 3 4 5 3 1 1 2 3 4 8 2 1 2 3 5 3 4 3
8 6 5 2 5 7 8 11 13 15 17 6 1 2 1 1 2 2 3 3 3 4 4 4 5 6 3 4 2 4 3 1 5 4 1 3 1 4 9 4 0 3 4 3 2 3 6
5 5 5 2 4 6 9 10 11 13 14 4 2 3 3 3 0 3 2 4 3 4 3 4 3 1 2 3 5 4 3 2 4 2 3 1 2 6 6 10 2 5 6 5 5 2 3
6 4 2 1 4 7 8 10 10 13 13 2 2 3 1 3 2 2 1 1 2 3 3 4 2 7 7 4 3 5 4 4 2 3 2 3 4 4 7 12 8 15 15 9 9 8 8
9 8 7 5 5 5 7 8 10 12 12 1 1 1 2 2 2 3 3 4 7 4 7 5 5 4 7 7 9 7 5 3 6 1 4 1 3 0 7 7 5 8 11 12 12 8 8
8 7 6 5 5 6 7 6 8 11 11 3 2 1 3 3 1 2 4 6 5 4 6 4 8 5 4 12 9 8 6 5 6 6 6 4 3 1 5 4 9 6 6 5 5 6 6
7 8 8 9 5 6 7 5 7 8 10 5 3 1 3 4 2 5 2 3 5 6 5 1 5 5 5 3 0 2 3 6 5 7 6 6 4 3 4 6 3 6 2 6 8 7 9
9 6 7 5 6 7 6 6 5 5 4 6 4 2 2 3 3 6 7 6 7 5 5 5 6 6 4 3 2 5 4 3 2 1 5 5 4 3 3 3 7 8 1 3 1 5 5
9 9 7 11 10 9 8 7 7 5 6 6 5 3 2 1 5 3 4 3 4 4 4 5 2 1 4 3 3 5 5 6 4 2 4 5 3 3 2 3 5 4 3 2 2 5 5
13 13 13 13 12 12 12 12 12 11 11 12 6 7 3 2 5 5 5 4 2 2 3 4 2 1 2 2 4 4 6 5 5 7 5 3 2 9 6 5 9 8 4 3 2 6 6
15 14 13 12 11 11 12 12 13 13 13 13 13 17 13 3 5 9 7 5 3 2 3 2 3 1 2 3 4 5 5 6 3 5 8 9 9 5 3 4 8 8 5 7 6 2 6
13 11 8 6 5 3 2 3 4 5 7 10 5 10 23 11 6 15 25 33 28 19 3 3 3 3 3 2 2 1 4 2 5 5 1 4 7 5 10 8 3 7 7 9 4 5 6
Wind_Direction
360 360 8 358 357 358 354 352 348 346 334 322 305 297 306 329 331 338 344 353 359 0 2 5 1 356 359 18 284 336 339 350 359 17 22 12 49 46 25 322 325 173 284 313 341 7 45
351 354 356 352 353 357 356 353 349 342 329 314 306 306 319 330 329 331 336 343 348 349 349 356 357 360 21 23 332 339 347 350 3 1 352 22 14 322 284 291 27 294 273 294 330 344 313
350 350 347 348 351 356 356 350 348 342 333 325 316 323 322 327 322 322 325 327 329 332 335 342 354 359 2 267 334 339 345 341 4 355 349 4 344 26 341 331 335 290 344 331 294 356 1
347 345 350 348 350 355 351 351 349 345 354 349 356 336 324 321 313 315 319 320 319 315 318 325 340 349 262 321 342 349 358 6 346 329 313 316 330 290 181 309 1 318 55 113 299 154 333
337 343 347 350 356 352 349 349 350 348 4 2 350 334 324 321 312 318 320 317 316 319 320 317 341 30 323 345 350 349 342 329 325 330 327 312 23 47 8 51 20 8 188 150 313 200 133
331 341 345 351 347 352 350 348 353 348 344 350 345 342 341 338 333 330 327 316 315 330 349 335 325 19 331 307 327 331 339 331 330 333 14 31 41 43 26 45 198 276 54 304 225 264 170
323 341 345 346 346 351 353 351 350 351 347 348 352 1 11 8 351 344 347 345 15 347 35 148 282 257 282 317 325 342 342 337 5 49 23 351 53 7 258 186 132 344 325 11 265 304 239
313 333 342 344 347 352 350 355 352 351 355 355 358 10 22 17 16 9 17 68 77 280 321 293 257 268 274 305 324 325 358 38 36 3 342 17 2 296 267 254 279 165 7 291 290 323 168
296 319 342 344 344 349 352 353 355 352 4 3 3 9 9 356 357 31 61 70 42 356 27 306 270 280 280 342 309 291 32 340 37 19 356 100 282 326 105 18 13 321 201 307 264 344 41
283 303 327 346 345 349 354 356 357 359 14 5 10 1 353 349 22 20 50 10 13 46 58 312 345 329 327 299 299 289 32 96 354 343 347 281 323 23 358 27 83 340 359 348 319 56 233
266 300 323 344 346 350 356 359 5 10 1 360 6 3 357 20 45 54 331 338 50 81 39 311 302 305 315 51 304 334 339 30 281 294 65 272 343 356 347 323 2 232 4 343 2 118 37
265 301 327 345 345 352 357 358 3 3 351 328 345 359 358 6 32 33 341 337 328 44 300 332 301 348 1 346 304 311 15 23 248 350 320 250 263 198 246 288 252 317 56 42 54 71 8
253 294 324 347 356 354 355 352 353 1 351 323 311 335 5 1 357 339 355 55 32 88 4 309 323 352 348 295 322 5 356 0 17 16 359 329 330 307 297 344 15 50 50 348 358 359 228
232 275 321 341 358 357 355 354 347 350 347 326 297 302 306 358 346 339 352 54 65 211 259 323 325 319 312 3 298 324 4 359 24 67 8 26 335 348 27 261 198 42 140 159 232 223 275
218 248 289 333 356 358 359 358 346 342 342 333 300 291 257 335 359 343 73 51 197 196 255 319 321 8 321 341 331 6 352 259 249 188 67 345 278 317 273 340 59 217 194 200 99 2 12
212 225 273 324 349 358 359 359 355 346 346 346 313 293 184 336 61 88 73 229 209 198 151 140 338 50 313 303 6 17 311 255 284 189 122 268 308 294 305 347 50 178 291 87 10 234 259
208 218 244 311 346 356 0 0 0 354 351 338 329 11 155 83 101 58 166 228 230 224 162 166 233 273 248 288 261 294 280 263 211 237 149 200 148 289 331 202 197 74 300 2 130 167 226
214 217 232 303 335 351 357 359 4 2 357 2 53 331 65 169 36 39 195 198 187 196 147 240 221 211 215 273 274 265 241 224 164 182 316 159 175 273 240 178 230 205 233 169 148 247 204
220 224 244 286 322 338 349 357 1 5 7 339 74 255 329 169 223 244 265 269 217 168 203 192 233 213 184 226 266 216 262 183 167 176 216 178 265 316 342 21 349 230 216 195 145 124 227
221 228 239 273 326 345 354 356 358 357 356 357 51 331 327 52 53 161 223 241 247 202 215 179 237 166 192 249 217 277 269 258 180 211 144 135 213 204 218 247 190 250 222 203 175 155 221
224 226 225 295 312 325 336 354 359 354 352 334 49 249 198 284 291 224 196 279 230 248 221 190 226 214 186 240 249 231 228 281 193 164 127 148 246 209 257 264 260 260 257 221 200 228 216
222 231 242 256 281 312 328 335 359 357 351 153 155 80 6 278 282 179 198 234 211 229 167 227 212 205 194 210 206 242 208 181 242 137 174 161 256 308 284 273 248 263 252 234 231 243 254
217 220 234 255 294 304 296 347 341 356 5 37 29 84 109 279 273 132 226 223 233 170 238 214 203 169 195 235 231 240 213 215 216 185 194 182 194 141 256 334 313 299 243 184 207 198 175
225 229 238 244 289 277 284 311 330 343 11 21 30 54 97 268 199 214 286 234 252 232 251 309 172 172 223 146 124 292 260 251 224 230 188 167 160 174 272 340 265 243 207 210 213 242 217
215 195 210 236 251 263 283 298 310 319 335 358 7 35 123 252 219 280 252 243 289 269 242 232 222 215 145 82 12 326 320 318 227 84 218 189 156 240 243 238 289 282 202 150 165 282 182
236 239 241 246 249 257 260 267 270 266 283 286 292 282 136 113 250 313 295 226 253 260 307 244 4 71 67 110 126 212 225 228 268 190 52 103 89 170 159 215 269 247 177 152 128 291 209
243 246 245 248 253 258 258 259 263 264 261 257 251 225 173 200 259 168 223 235 221 271 246 302 346 346 44 140 198 206 236 206 223 196 180 151 168 213 225 247 277 247 169 151 135 233 176
221 224 228 236 240 245 251 256 260 261 258 254 253 241 213 228 226 205 204 217 262 183 234 262 13 260 97 189 197 225 202 224 224 204 181 175 172 197 162 208 277 162 95 173 215 225 190
142 135 118 104 72 51 8 325 308 293 274 272 258 249 242 246 258 229 245 245 240 237 156 216 245 230 231 166 244 288 234 211 212 248 162 233 205 194 191 206 262 207 204 213 171 191 216